Turocak, Russia
Current Conditions -  °F | °C
As of 1:00 AM on Saturday 20 Dec 2014 (Local Time) from UNBB Reporting Station
Haze Haze  
Wind Chill:   Ceiling: Unl
Heat Index:   Visibility: 1.9mi
Dew Point: -6°   Wind: 0mph
Humidity: 78%   Direction: NA
Pressure: 30.56"   Gusts: NA
Location:  52.27°N, 87.17°E
Report Text: UNBB 191800Z 00000MPS 3100 BR SCT010 M18/M21 Q1035 NOSIG RMKQFE753/1005 24420357
Loading
Personal Weather Stations






























Interactive Weather Map New forecast layout! Learn more

10-Day Weather Forecast

Advertisements
Track Severe Weather on mobile